Monroe, WI

12:03 PM CST on December 11, 2017 (GMT -0600)
Monroe Municipal

Weather History for KEFT - March, 2014

Change the Weather History Date:

Saturday, March 8, 2014

  Actual Average Record
Temperature  
Mean Temperature 27 °F -  
Max Temperature 33 °F 0 °F 69 °F (2016)
Min Temperature 21 °F - 0 °F (1999)
Degree Days  
Heating Degree Days 38    
Moisture  
Dew Point 24 °F    
Average Humidity 81    
Maximum Humidity 100    
Minimum Humidity 58    
Precipitation  
Precipitation 0.01 in - - ()
Sea Level Pressure  
Sea Level Pressure 30.15 in    
Wind  
Wind Speed 10 mph (NNW)    
Max Wind Speed 18 mph    
Max Gust Speed 23 mph    
Visibility 9 miles    
Events      
Averages and records for this station are not official NWS values.
T = Trace of Precipitation, MM = Missing Value Source: NWS Daily Summary

Daily Weather History Graph

Daily Weather History Graph

Search for Another Location

Airport or City:

Trip Planner

Search our weather history database for the weather conditions in past years. The results will help you decide how hot, cold, wet, or windy it might be!

Date:

Astronomy

Mar. 08, 2014 Rise Set
Actual Time 6:22 AM CST 5:56 PM CST
Civil Twilight 5:54 AM CST 6:24 PM CST
Nautical Twilight 5:21 AM CST 6:57 PM CST
Astronomical Twilight 4:48 AM CST 7:30 PM CST
Moon 10:55 AM CST (3/8) 1:02 AM CST (3/8)
Length of Visible Light 12h 30m
Length of Day
11h 34m
First Quarter, 52% of the Moon is Illuminated
Mar 8
First Quarter
Mar 16
Full
Mar 23
Last Quarter
Mar 30
New
Apr 7
First Quarter

Hourly Weather History & Observations

Time (CST) Temp. Windchill Dew Point Humidity Pressure Visibility Wind Dir Wind Speed Gust Speed Precip Events Conditions
12:15 AM 33.8 °F 26.4 °F 33.8 °F 100% 30.00 in 5.0 mi North 9.2 mph - N/A   Overcast
12:35 AM 33.6 °F 26.8 °F 33.6 °F 100% 30.00 in 5.0 mi North 8.1 mph - N/A   Overcast
12:55 AM 33.4 °F 24.8 °F 33.4 °F 100% 30.00 in 7.0 mi North 11.5 mph - N/A   Overcast
1:15 AM 33.3 °F 24.6 °F 33.3 °F 100% 30.01 in 5.0 mi North 11.5 mph - N/A   Overcast
1:35 AM 33.1 °F 25.5 °F 33.1 °F 100% 30.01 in 7.0 mi North 9.2 mph 12.7 mph N/A   Overcast
1:55 AM 32.9 °F 23.7 °F 32.9 °F 100% 30.02 in 7.0 mi North 12.7 mph - N/A   Overcast
2:15 AM 32.9 °F 24.1 °F 32.9 °F 100% 30.02 in 7.0 mi North 11.5 mph 17.3 mph N/A   Overcast
2:35 AM 32.9 °F 24.7 °F 32.9 °F 100% 30.03 in 7.0 mi North 10.4 mph - N/A   Overcast
2:55 AM 32.5 °F 23.7 °F 32.5 °F 100% 30.03 in 7.0 mi North 11.5 mph - N/A   Overcast
3:15 AM 32.4 °F 24.6 °F 32.4 °F 100% 30.04 in 7.0 mi NNE 9.2 mph - N/A   Overcast
3:35 AM 32.0 °F 21.6 °F 32.0 °F 100% 30.04 in 7.0 mi NNE 15.0 mph - N/A   Overcast
3:55 AM 32.0 °F 22.5 °F 32.0 °F 100% 30.05 in 7.0 mi NNE 12.7 mph - N/A   Overcast
4:15 AM 32.0 °F 21.2 °F 32.0 °F 100% 30.06 in 5.0 mi NNE 16.1 mph - N/A   Overcast
4:35 AM 31.3 °F 21.6 °F 31.3 °F 100% 30.07 in 7.0 mi NNE 12.7 mph - N/A   Overcast
4:55 AM 30.9 °F 21.7 °F 30.9 °F 100% 30.07 in 5.0 mi NNE 11.5 mph - N/A   Overcast
5:20 AM 30.7 °F 20.4 °F 30.7 °F 100% 30.08 in 10.0 mi NNE 13.8 mph 20.7 mph N/A   Overcast
5:35 AM 30.7 °F 20.9 °F 30.7 °F 100% 30.09 in 10.0 mi NNE 12.7 mph - N/A   Overcast
5:55 AM 30.7 °F 21.4 °F 30.7 °F 100% 30.10 in 10.0 mi NNE 11.5 mph - N/A   Overcast
6:15 AM 30.6 °F 21.2 °F 30.6 °F 100% 30.11 in 10.0 mi NNE 11.5 mph - N/A   Overcast
6:35 AM 30.6 °F 19.8 °F 30.4 °F 99% 30.12 in 10.0 mi NNE 15.0 mph - N/A   Overcast
6:55 AM 30.2 °F 19.8 °F 30.2 °F 100% 30.13 in 10.0 mi NNE 13.8 mph - N/A   Overcast
7:15 AM 29.8 °F 18.9 °F 29.8 °F 100% 30.14 in 10.0 mi NNE 15.0 mph 18.4 mph N/A   Overcast
7:35 AM 28.6 °F 16.0 °F 28.6 °F 100% 30.14 in 7.0 mi NNE 18.4 mph 23.0 mph N/A   Overcast
7:55 AM 27.9 °F 16.8 °F 27.9 °F 100% 30.15 in 10.0 mi NNE 13.8 mph - N/A   Overcast
8:20 AM 27.9 °F 16.8 °F 27.9 °F 100% 30.16 in 10.0 mi NNE 13.8 mph - N/A   Overcast
8:40 AM 27.7 °F 17.6 °F 27.7 °F 100% 30.17 in 7.0 mi NNE 11.5 mph - N/A   Overcast
9:00 AM 28.0 °F 17.5 °F 27.7 °F 99% 30.17 in 10.0 mi NNE 12.7 mph - N/A   Overcast
9:15 AM 27.5 °F 17.4 °F 26.2 °F 95% 30.17 in 10.0 mi NNE 11.5 mph - N/A   Overcast
9:35 AM 27.5 °F 17.4 °F 26.1 °F 94% 30.18 in 10.0 mi NNE 11.5 mph - N/A   Overcast
9:55 AM 28.0 °F 17.0 °F 25.7 °F 91% 30.19 in 10.0 mi NNE 13.8 mph - N/A   Overcast
10:15 AM 28.4 °F 17.5 °F 24.8 °F 86% 30.19 in 10.0 mi NNE 13.8 mph - N/A   Overcast
10:35 AM 28.4 °F 17.0 °F 22.1 °F 77% 30.19 in 10.0 mi NNE 15.0 mph - N/A   Overcast
10:55 AM 28.8 °F 19.5 °F 23.0 °F 79% 30.20 in 10.0 mi NNE 10.4 mph - N/A   Overcast
11:20 AM 29.8 °F 21.5 °F 23.5 °F 77% 30.21 in 10.0 mi North 9.2 mph - N/A   Overcast
11:35 AM 30.0 °F 20.5 °F 21.7 °F 71% 30.21 in 10.0 mi North 11.5 mph - N/A   Overcast
12:00 PM 30.6 °F 23.8 °F 21.6 °F 69% 30.20 in 10.0 mi North 6.9 mph - N/A   Overcast
12:15 PM 30.9 °F 22.8 °F 21.0 °F 67% 30.20 in 10.0 mi North 9.2 mph - N/A   Overcast
12:35 PM 32.0 °F 26.4 °F 21.2 °F 64% 30.19 in 10.0 mi North 5.8 mph - N/A   Overcast
12:55 PM 31.1 °F 25.4 °F 20.1 °F 64% 30.19 in 10.0 mi North 5.8 mph - N/A   Overcast
1:15 PM 32.0 °F 26.4 °F 21.0 °F 64% 30.19 in 10.0 mi North 5.8 mph - N/A   Overcast
1:35 PM 32.5 °F 26.2 °F 21.7 °F 64% 30.19 in 10.0 mi NNW 6.9 mph - N/A   Overcast
1:55 PM 32.4 °F 25.3 °F 21.2 °F 63% 30.18 in 10.0 mi NNW 8.1 mph - N/A   Overcast
2:15 PM 32.0 °F 27.5 °F 21.0 °F 64% 30.18 in 10.0 mi NW 4.6 mph - N/A   Overcast
2:35 PM 32.5 °F 26.2 °F 21.2 °F 63% 30.18 in 10.0 mi NW 6.9 mph - N/A   Overcast
2:55 PM 32.9 °F 27.5 °F 20.5 °F 60% 30.18 in 10.0 mi WNW 5.8 mph - N/A   Overcast
3:15 PM 32.4 °F 29.1 °F 20.8 °F 63% 30.19 in 10.0 mi NW 3.5 mph - N/A   Overcast
3:35 PM 32.7 °F 28.3 °F 20.3 °F 60% 30.18 in 10.0 mi NNW 4.6 mph - N/A   Overcast
3:55 PM 32.0 °F 27.5 °F 19.6 °F 60% 30.19 in 10.0 mi NNW 4.6 mph - N/A   Overcast
4:15 PM 32.2 °F 27.7 °F 19.8 °F 60% 30.19 in 10.0 mi WNW 4.6 mph - N/A   Overcast
4:35 PM 32.0 °F 26.4 °F 19.2 °F 59% 30.18 in 10.0 mi WNW 5.8 mph - N/A   Mostly Cloudy
4:55 PM 32.0 °F 27.5 °F 18.5 °F 58% 30.18 in 10.0 mi WNW 4.6 mph - N/A   Mostly Cloudy
5:15 PM 31.8 °F 26.2 °F 18.9 °F 59% 30.19 in 10.0 mi WNW 5.8 mph - N/A   Scattered Clouds
5:35 PM 30.6 °F 22.4 °F 18.3 °F 60% 30.19 in 10.0 mi West 9.2 mph - N/A   Clear
5:55 PM 29.5 °F 22.5 °F 18.0 °F 62% 30.19 in 10.0 mi West 6.9 mph - N/A   Clear
6:15 PM 28.8 °F 20.9 °F 18.3 °F 65% 30.20 in 10.0 mi West 8.1 mph - N/A   Clear
6:35 PM 28.4 °F 19.7 °F 18.1 °F 65% 30.21 in 10.0 mi West 9.2 mph - N/A   Clear
6:55 PM 27.9 °F 19.1 °F 17.8 °F 66% 30.21 in 10.0 mi West 9.2 mph - N/A   Clear
7:15 PM 27.3 °F 18.4 °F 17.6 °F 67% 30.21 in 10.0 mi West 9.2 mph - N/A   Clear
7:35 PM 26.4 °F 18.0 °F 17.4 °F 69% 30.21 in 10.0 mi WSW 8.1 mph - N/A   Clear
7:55 PM 26.6 °F 18.2 °F 17.6 °F 69% 30.21 in 10.0 mi WSW 8.1 mph - N/A   Clear
8:15 PM 26.6 °F 18.2 °F 18.0 °F 70% 30.22 in 10.0 mi WSW 8.1 mph - N/A   Clear
8:35 PM 25.7 °F 15.7 °F 17.6 °F 71% 30.21 in 10.0 mi West 10.4 mph - N/A   Clear
8:55 PM 25.7 °F 15.7 °F 17.6 °F 71% 30.22 in 10.0 mi West 10.4 mph - N/A   Clear
9:15 PM 24.8 °F 14.6 °F 17.8 °F 75% 30.22 in 10.0 mi West 10.4 mph - N/A   Clear
9:35 PM 24.4 °F 14.9 °F 17.6 °F 75% 30.23 in 10.0 mi West 9.2 mph - N/A   Clear
9:55 PM 23.5 °F 13.7 °F 17.6 °F 78% 30.22 in 10.0 mi West 9.2 mph - N/A   Clear
10:15 PM 23.0 °F 13.1 °F 16.7 °F 77% 30.22 in 10.0 mi West 9.2 mph - N/A   Clear
10:35 PM 22.8 °F 12.9 °F 15.8 °F 74% 30.21 in 10.0 mi West 9.2 mph - N/A   Clear
10:55 PM 22.6 °F 13.4 °F 15.1 °F 73% 30.21 in 10.0 mi West 8.1 mph - N/A   Clear
11:15 PM 22.1 °F 12.0 °F 14.9 °F 74% 30.21 in 10.0 mi West 9.2 mph - N/A   Clear
11:35 PM 21.9 °F 11.7 °F 14.4 °F 73% 30.21 in 10.0 mi West 9.2 mph - N/A   Clear
11:55 PM 21.0 °F 9.9 °F 13.8 °F 74% 30.21 in 10.0 mi West 10.4 mph - N/A   Clear